Location: Arroyo de San Miguel
(40.9167°N, 4.6667°W)
Time: 02:09:46
(UTC+00:00)

BlueWalker 3 - Pass Details

Date: 19 May 2025
Orbit: 461 x 471 km, 53.2° (Epoch: 24 June)

Event Time Altitude Azimuth Distance (km) Brightness Sun altitude
Rises 22:41:10 0° 307° (NW) 2,497 6.4 -25.3°
Reaches altitude 10° 22:43:19 10° 306° (NW) 1,620 5.3 -25.5°
Enters shadow 22:45:25 32° 299° (WNW) 815 3.4 -25.6°
